Regional Weather Roundup
Issued by NWS

Home | Current Version | Previous Version | Text Only | Print | Product List | Glossary Off
Versions: 1 2 3 4 5 6 7 8 9 10 11 12 13 14 15 16 17 18 19 20 21 22 23 24 25 26 27 28 29 30 31 32 33 34 35 36 37 38 39 40 41 42 43 44 45 46 47 48 49 50

000
ASUS45 KTFX 270710
RWRMT
MONTANA REGIONAL WEATHER ROUNDUP
NATIONAL WEATHER SERVICE GREAT FALLS MT
100 AM MDT WED MAY 27 2015

NOTE: "FAIR" INDICATES FEW OR NO CLOUDS BELOW 12000 FEET WITH NO
SIGNIFICANT WEATHER AND/OR OBSTRUCTIONS TO VISIBILITY.

MTZ001>007-043-270800-
WEST OF THE DIVIDE

CITY           SKY/WX    TMP DP  RH WIND       PRES   REMARKS
KALISPELL      MOSUNNY   46  42  86 W3        29.96S
MISSOULA       CLOUDY    50  46  86 SE7       30.02R
BUTTE          CLOUDY    49  41  74 NW3       30.06S
MULLAN PASS    PTCLDY    44  39  82 SE3       30.04S
$$

MTZ008-052>055-270800-
SOUTHWEST MONTANA

CITY           SKY/WX    TMP DP  RH WIND       PRES   REMARKS
BOZEMAN        CLOUDY    52  44  74 W10       30.02R
DILLON         CLOUDY    49  46  90 W3        30.03F
W YELLOWSTONE  CLOUDY    41  39  93 CALM      30.09F
$$

MTZ009-010-012-014-046-048-049-054-270800-
EAST SLOPES AND CENTRAL MONTANA

CITY           SKY/WX    TMP DP  RH WIND       PRES   REMARKS
CUT BANK       PTCLDY    49  45  86 NW13      29.99S
GREAT FALLS    MOCLDY    50  47  89 CALM      29.98R
MALMSTROM AFB  PTCLDY    50  48  93 W1        29.98S
HELENA         CLOUDY    57  42  57 SW9       30.00R
$$

MTZ011-013-016-021-045-047-050-051-270800-
NORTH CENTRAL MONTANA

CITY           SKY/WX    TMP DP  RH WIND       PRES   REMARKS
HAVRE          CLOUDY    56  50  80 SW8       29.94R
LEWISTOWN      PTCLDY    47  44  90 SE6       29.98S
N BAR RANCH    PTSUNNY   46  45  93 NW6       30.01S
$$

MTZ017>020-022>027-061-062-270800-
NORTHEAST MONTANA

CITY           SKY/WX    TMP DP  RH WIND       PRES   REMARKS
GLASGOW        MOCLDY    60  45  57 VRB5      29.88S
JORDAN           N/A     56  53  90 W3        29.91S
SIDNEY         PTCLDY    54  46  76 CALM      29.90S
WOLF POINT     MOCLDY    54  47  77 CALM      29.88S
$$

MTZ028>42-056>058-270800-
SOUTHCENTRAL AND SOUTHEAST MONTANA

CITY           SKY/WX    TMP DP  RH WIND       PRES   REMARKS
BAKER          CLEAR     50  45  83 E6        29.95S
BILLINGS       MOCLDY    53  49  86 N3        29.95F
LIVINGSTON     MOCLDY    53  43  68 SE5       29.98F
MILES CITY     PTCLDY    59  48  67 S5        29.90S
$$

REGIONAL REPORTS...DAKOTAS

CITY           SKY/WX    TMP DP  RH WIND       PRES   REMARKS
WILLISTON      PTCLDY    62  46  55 S3        29.90S
MINOT          CLEAR     60  45  57 SW9       29.87S
DICKINSON      CLEAR     49  43  80 S8        29.93S
BEACH          PTSUNNY   50  48  93 S9        29.95S
CROSBY         FAIR      57  46  67 SW13      29.89S
WATFORD CITY   FAIR      54  43  66 CALM      29.90S
BISMARCK       CLEAR     51  48  89 CALM      29.92S
GRAND FORKS    CLEAR     60  48  64 NW10      29.78R
FARGO          CLEAR     57  51  80 W6        29.79S
BUFFALO SD       N/A     53  45  74 E6        29.89F
RAPID CITY     PTCLDY    51  47  86 CALM      29.98F
$$

REGIONAL REPORTS...WYOMING/IDAHO/WASHINGTON

CITY           SKY/WX    TMP DP  RH WIND       PRES   REMARKS
GILLETTE       CLOUDY    52  48  86 NE5       29.98F
SHERIDAN       PTCLDY    49  47  93 SW8       29.97F
BUFFALO WY     LGT RAIN  51  47  86 W10       30.01F
CODY           CLOUDY    52  46  82 CALM      29.99F
YELLOWSTONE LA   N/A     34  32  92 CALM      30.14S
IDAHO FALLS    PTCLDY    45  43  93 N6        30.04S
SALMON         MOCLDY    54  45  71 NE7       30.00R
BOISE          MOCLDY    62  47  57 SE5       29.93R THUNDER
SPOKANE        PTCLDY    54  49  83 CALM      29.98R
$$

REGIONAL REPORTS...ALBERTA

CITY           SKY/WX    TMP DP  RH WIND       PRES   REMARKS
CALGARY        CLOUDY    55  45  67 VRB2      30.06R
LETHBRIDGE     CLOUDY    54  50  87 W9        29.99S
MEDICINE HAT   MOCLDY    61  48  63 SW7       29.95S
$$

REGIONAL REPORTS...SASKATCHEWAN

CITY           SKY/WX    TMP DP  RH WIND       PRES   REMARKS
SWIFT CURRENT  CLOUDY    59  46  63 E9        29.91S
REGINA         CLEAR     61  48  63 NE13      29.89S
SASKATOON      CLEAR     52  43  71 NE10      30.00S
$$



USA.gov is the U.S. government's official web portal to all federal, state and local government web resources and services.